Location: Katowice
(50.2611°N, 19.0242°E)
Time: 00:54:21
(UTC+02:00)

A-11 Canister half - Pass Details

Date: 30 July 2019
Orbit: 1526 x 1682 km, 47.3° (Epoch: 24 August)

Event Time Altitude Azimuth Distance (km) Brightness Sun altitude
Rises 01:28:40 0° 289° (WNW) 4,876 11.7 -20.6°
Reaches altitude 10° 01:32:12 10° 280° (W) 3,865 11.1 -20.5°
Maximum altitude 01:40:37 34° 221° (SW) 2,408 9.5 -20.2°
Enters shadow 01:43:20 29° 192° (SSW) 2,582 9.6 -20.1°
Drops below altitude 10° 01:48:47 10° 161° (SSE) 3,746 - -19.9°
Sets 01:52:10 0° 153° (SSE) 4,708 - -19.8°
